AAL466 KOMA-KCLT

Flight info

Callsign AAL466
Flight time 1h 59m
Altitude 37000
Route OVR ROTTN PHEEB GVR TAFTT PARQR4
Aircraft B38M/M-SDE1FGHILORVWXY/HB1

Departure

Time 2026-04-23 18:04
Airport Eppley Airfield (KOMA)

Arrival

Time 2026-04-23 20:03
Airport Charlotte Douglas International Airport (KCLT)
Time Latitude Longitude Altitude Speed Heading
2026-04-23 17:42 41.29803 -95.89896 987 ft 0 kts 87°
2026-04-23 17:51 41.29803 -95.89909 993 ft 4 kts 84°
2026-04-23 17:52 41.29799 -95.89945 987 ft 4 kts 87°
2026-04-23 17:52 41.29804 -95.89969 988 ft 1 kts 181°
2026-04-23 17:55 41.29790 -95.89969 995 ft 7 kts 181°
2026-04-23 17:55 41.29709 -95.89967 991 ft 15 kts 177°
2026-04-23 17:55 41.29640 -95.89892 995 ft 14 kts 97°
2026-04-23 17:56 41.29640 -95.89757 990 ft 13 kts 90°
2026-04-23 17:56 41.29734 -95.89690 992 ft 11 kts 359°
2026-04-23 17:56 41.29800 -95.89665 990 ft 10 kts 62°
2026-04-23 17:57 41.29848 -95.89607 993 ft 11 kts
2026-04-23 17:57 41.29931 -95.89606 991 ft 13 kts
2026-04-23 17:57 41.30136 -95.89611 990 ft 14 kts 343°
2026-04-23 17:58 41.30223 -95.89680 991 ft 15 kts 329°
2026-04-23 17:58 41.30310 -95.89770 990 ft 17 kts 324°
2026-04-23 17:58 41.30409 -95.89863 987 ft 18 kts 324°
2026-04-23 17:58 41.30515 -95.89964 987 ft 20 kts 324°
2026-04-23 17:59 41.30630 -95.90075 989 ft 21 kts 324°
2026-04-23 17:59 41.30754 -95.90192 990 ft 21 kts 324°
2026-04-23 17:59 41.30871 -95.90302 990 ft 21 kts 324°
2026-04-23 17:59 41.30991 -95.90414 987 ft 20 kts 324°
2026-04-23 18:00 41.31095 -95.90515 987 ft 19 kts 324°
2026-04-23 18:00 41.31203 -95.90619 990 ft 19 kts 324°
2026-04-23 18:00 41.31278 -95.90692 990 ft 9 kts 324°
2026-04-23 18:00 41.31287 -95.90701 991 ft 1 kts 329°
2026-04-23 18:01 41.31302 -95.90709 992 ft 4 kts 342°
2026-04-23 18:01 41.31333 -95.90695 989 ft 6 kts 50°
2026-04-23 18:01 41.31362 -95.90622 989 ft 9 kts 76°
2026-04-23 18:01 41.31332 -95.90561 989 ft 0 kts 145°
2026-04-23 18:03 41.31276 -95.90509 997 ft 35 kts 144°
2026-04-23 18:03 41.30875 -95.90127 992 ft 105 kts 144°
2026-04-23 18:03 41.30116 -95.89405 997 ft 160 kts 145°
2026-04-23 18:03 41.29137 -95.88466 1405 ft 180 kts 149°
2026-04-23 18:04 41.28092 -95.87524 2228 ft 186 kts 151°
2026-04-23 18:04 41.27016 -95.86459 2874 ft 202 kts 145°
2026-04-23 18:04 41.25917 -95.85095 3328 ft 228 kts 143°
2026-04-23 18:04 41.24731 -95.83601 4034 ft 243 kts 142°
2026-04-23 18:05 41.23458 -95.82012 4635 ft 258 kts 142°
2026-04-23 18:05 41.22120 -95.80351 4948 ft 267 kts 142°
2026-04-23 18:05 41.20755 -95.78663 4973 ft 268 kts 142°
2026-04-23 18:05 41.19387 -95.76976 5450 ft 266 kts 143°
2026-04-23 18:06 41.18026 -95.75299 6411 ft 270 kts 142°
2026-04-23 18:06 41.16932 -95.73204 7257 ft 286 kts 117°
2026-04-23 18:06 41.16520 -95.70599 8069 ft 300 kts 101°
2026-04-23 18:06 41.16327 -95.67806 8846 ft 308 kts 102°
2026-04-23 18:07 41.16121 -95.64909 9668 ft 314 kts 102°
2026-04-23 18:07 41.15922 -95.62038 10387 ft 322 kts 102°
2026-04-23 18:07 41.15708 -95.58989 10789 ft 341 kts 101°
2026-04-23 18:07 41.15486 -95.55781 11231 ft 357 kts 101°
2026-04-23 18:08 41.15331 -95.53538 11578 ft 365 kts 101°
2026-04-23 18:08 41.15017 -95.49015 12366 ft 377 kts 101°
2026-04-23 18:08 41.14774 -95.45539 13125 ft 380 kts 101°
2026-04-23 18:08 41.14527 -95.42032 13824 ft 384 kts 101°
2026-04-23 18:09 41.14277 -95.38485 14514 ft 387 kts 101°
2026-04-23 18:09 41.14023 -95.34905 15202 ft 391 kts 101°
2026-04-23 18:09 41.13765 -95.31291 15861 ft 396 kts 101°
2026-04-23 18:09 41.13503 -95.27638 16505 ft 400 kts 101°
2026-04-23 18:10 41.13238 -95.23947 17146 ft 404 kts 101°
2026-04-23 18:10 41.12969 -95.20221 17803 ft 408 kts 101°
2026-04-23 18:10 41.12696 -95.16464 18391 ft 411 kts 101°
2026-04-23 18:10 41.12420 -95.12682 18948 ft 414 kts 101°
2026-04-23 18:11 41.12140 -95.08862 19512 ft 417 kts 101°
2026-04-23 18:11 41.11857 -95.05019 20066 ft 420 kts 101°
2026-04-23 18:11 41.11570 -95.01146 20602 ft 424 kts 101°
2026-04-23 18:11 41.11281 -94.97247 21153 ft 427 kts 101°
2026-04-23 18:12 41.10988 -94.93314 21675 ft 430 kts 101°
2026-04-23 18:12 41.10692 -94.89361 22218 ft 432 kts 101°
2026-04-23 18:12 41.10391 -94.85383 22757 ft 435 kts 101°
2026-04-23 18:12 41.10089 -94.81386 23273 ft 438 kts 100°
2026-04-23 18:13 41.09782 -94.77352 23718 ft 440 kts 100°
2026-04-23 18:13 41.09473 -94.73299 24143 ft 443 kts 100°
2026-04-23 18:13 41.09161 -94.69235 24587 ft 445 kts 100°
2026-04-23 18:13 41.08849 -94.65194 25009 ft 448 kts 100°
2026-04-23 18:14 41.08530 -94.61078 25429 ft 450 kts 100°
2026-04-23 18:14 41.08209 -94.56947 25836 ft 452 kts 100°
2026-04-23 18:14 41.07884 -94.52785 26227 ft 454 kts 100°
2026-04-23 18:14 41.07557 -94.48614 26623 ft 457 kts 100°
2026-04-23 18:15 41.07225 -94.44424 27019 ft 459 kts 100°
2026-04-23 18:15 41.06891 -94.40199 27409 ft 461 kts 100°
2026-04-23 18:15 41.06553 -94.35960 27792 ft 464 kts 100°
2026-04-23 18:15 41.06212 -94.31702 28163 ft 466 kts 99°
2026-04-23 18:16 41.05868 -94.27431 28532 ft 468 kts 100°
2026-04-23 18:16 41.05521 -94.23131 28895 ft 470 kts 99°
2026-04-23 18:16 41.05170 -94.18814 29221 ft 473 kts 99°
2026-04-23 18:17 41.04458 -94.10118 29890 ft 477 kts 99°
2026-04-23 18:17 41.04098 -94.05737 30180 ft 479 kts 99°
2026-04-23 18:17 41.03733 -94.01339 30479 ft 481 kts 99°
2026-04-23 18:17 41.03368 -93.96931 30774 ft 483 kts 99°
2026-04-23 18:18 41.02997 -93.92504 31112 ft 483 kts 100°
2026-04-23 18:18 41.02627 -93.88089 31527 ft 482 kts 100°
2026-04-23 18:18 41.02255 -93.83687 31948 ft 481 kts 100°
2026-04-23 18:18 41.01882 -93.79293 32353 ft 480 kts 100°
2026-04-23 18:19 41.01509 -93.74908 32721 ft 479 kts 100°
2026-04-23 18:19 41.01136 -93.70521 33107 ft 478 kts 101°
2026-04-23 18:19 41.00762 -93.66155 33526 ft 477 kts 101°
2026-04-23 18:19 41.00405 -93.61997 33889 ft 476 kts 101°
2026-04-23 18:20 41.00029 -93.57642 34232 ft 475 kts 101°
2026-04-23 18:20 40.99639 -93.53310 34553 ft 472 kts 104°
2026-04-23 18:20 40.98954 -93.49094 34879 ft 468 kts 106°
2026-04-23 18:20 40.98280 -93.44870 35183 ft 468 kts 106°
2026-04-23 18:21 40.97628 -93.40658 35470 ft 467 kts 105°
2026-04-23 18:21 40.96981 -93.36448 35773 ft 466 kts 105°
2026-04-23 18:21 40.96336 -93.32248 36103 ft 465 kts 105°
2026-04-23 18:21 40.95694 -93.28065 36384 ft 464 kts 105°
2026-04-23 18:22 40.95049 -93.23888 36661 ft 463 kts 105°
2026-04-23 18:22 40.94404 -93.19709 36791 ft 464 kts 105°
2026-04-23 18:22 40.93114 -93.11391 36760 ft 460 kts 106°
2026-04-23 18:23 40.91180 -92.99002 36775 ft 461 kts 105°
2026-04-23 18:24 40.89224 -92.86563 36781 ft 460 kts 105°
2026-04-23 18:25 40.87256 -92.74141 36792 ft 460 kts 105°
2026-04-23 18:25 40.85936 -92.65855 36783 ft 461 kts 105°
2026-04-23 18:26 40.84602 -92.57526 36807 ft 467 kts 105°
2026-04-23 18:26 40.83247 -92.49107 36806 ft 468 kts 105°
2026-04-23 18:27 40.81890 -92.40719 36814 ft 468 kts 105°
2026-04-23 18:27 40.80535 -92.32376 36817 ft 468 kts 105°
2026-04-23 18:28 40.79161 -92.23975 36797 ft 470 kts 105°
2026-04-23 18:28 40.77768 -92.15486 36820 ft 476 kts 105°
2026-04-23 18:29 40.76359 -92.06941 36821 ft 476 kts 105°
2026-04-23 18:29 40.74945 -91.98407 36819 ft 476 kts 105°
2026-04-23 18:30 40.73527 -91.89886 36834 ft 476 kts 105°
2026-04-23 18:30 40.72089 -91.81291 36830 ft 483 kts 104°
2026-04-23 18:31 40.70631 -91.72623 36824 ft 484 kts 105°
2026-04-23 18:31 40.69167 -91.63957 36831 ft 484 kts 105°
2026-04-23 18:32 40.67697 -91.55303 36831 ft 484 kts 105°
2026-04-23 18:32 40.66221 -91.46648 36830 ft 484 kts 104°
2026-04-23 18:33 40.64739 -91.38002 36832 ft 484 kts 104°
2026-04-23 18:33 40.63250 -91.29359 36833 ft 484 kts 104°
2026-04-23 18:34 40.61754 -91.20716 36832 ft 484 kts 104°
2026-04-23 18:34 40.60254 -91.12088 36836 ft 484 kts 104°
2026-04-23 18:35 40.58755 -91.03510 36841 ft 484 kts 104°
2026-04-23 18:35 40.57240 -90.94881 36847 ft 484 kts 104°
2026-04-23 18:36 40.55716 -90.86244 36872 ft 484 kts 104°
2026-04-23 18:36 40.54188 -90.77619 36878 ft 484 kts 104°
2026-04-23 18:37 40.52656 -90.69010 36878 ft 483 kts 104°
2026-04-23 18:37 40.51119 -90.60417 36879 ft 483 kts 104°
2026-04-23 18:38 40.49836 -90.53275 36875 ft 483 kts 104°
2026-04-23 18:38 40.48287 -90.44683 36878 ft 483 kts 105°
2026-04-23 18:39 40.46732 -90.36109 36866 ft 482 kts 105°
2026-04-23 18:39 40.45177 -90.27557 36880 ft 481 kts 105°
2026-04-23 18:40 40.43614 -90.19005 36883 ft 481 kts 105°
2026-04-23 18:40 40.42045 -90.10464 36889 ft 481 kts 105°
2026-04-23 18:41 40.40470 -90.01923 36888 ft 481 kts 105°
2026-04-23 18:41 40.38898 -89.93444 36888 ft 482 kts 106°
2026-04-23 18:42 40.37308 -89.84898 36897 ft 483 kts 106°
2026-04-23 18:42 40.35711 -89.76351 36895 ft 483 kts 106°
2026-04-23 18:43 40.34107 -89.67804 36901 ft 483 kts 106°
2026-04-23 18:43 40.32501 -89.59275 36906 ft 482 kts 106°
2026-04-23 18:44 40.30887 -89.50742 36906 ft 482 kts 106°
2026-04-23 18:44 40.29268 -89.42216 36912 ft 482 kts 106°
2026-04-23 18:45 40.27644 -89.33696 36920 ft 482 kts 106°
2026-04-23 18:45 40.25665 -89.25352 36904 ft 476 kts 120°
2026-04-23 18:46 40.22751 -89.17542 36922 ft 479 kts 119°
2026-04-23 18:46 40.19843 -89.09706 36912 ft 478 kts 119°
2026-04-23 18:47 40.16922 -89.01893 36924 ft 478 kts 119°
2026-04-23 18:47 40.13993 -88.94086 36923 ft 478 kts 119°
2026-04-23 18:48 40.11059 -88.86282 36930 ft 478 kts 120°
2026-04-23 18:48 40.08115 -88.78476 36933 ft 480 kts 120°
2026-04-23 18:49 40.05159 -88.70658 36937 ft 480 kts 120°
2026-04-23 18:49 40.02218 -88.62899 36939 ft 480 kts 120°
2026-04-23 18:50 39.99734 -88.56363 36953 ft 480 kts 120°
2026-04-23 18:50 39.96288 -88.47315 36961 ft 479 kts 120°
2026-04-23 18:51 39.93314 -88.39533 36962 ft 481 kts 120°
2026-04-23 18:51 39.90326 -88.31733 36961 ft 481 kts 120°
2026-04-23 18:52 39.87336 -88.23947 36963 ft 481 kts 120°
2026-04-23 18:52 39.84339 -88.16166 36960 ft 481 kts 120°
2026-04-23 18:53 39.81338 -88.08393 36953 ft 481 kts 120°
2026-04-23 18:53 39.78326 -88.00611 36962 ft 482 kts 120°
2026-04-23 18:54 39.75311 -87.92842 36971 ft 481 kts 120°
2026-04-23 18:54 39.72295 -87.85091 36979 ft 481 kts 121°
2026-04-23 18:55 39.69272 -87.77344 36982 ft 481 kts 121°
2026-04-23 18:55 39.66247 -87.69608 36975 ft 481 kts 120°
2026-04-23 18:56 39.63726 -87.63176 36985 ft 482 kts 120°
2026-04-23 18:56 39.60168 -87.54126 36981 ft 482 kts 121°
2026-04-23 18:57 39.57121 -87.46394 36981 ft 482 kts 121°
2026-04-23 18:57 39.54069 -87.38669 36975 ft 481 kts 120°
2026-04-23 18:58 39.51017 -87.30966 36975 ft 481 kts 120°
2026-04-23 18:58 39.47975 -87.23309 36983 ft 482 kts 120°
2026-04-23 18:59 39.44907 -87.15602 36989 ft 482 kts 120°
2026-04-23 18:59 39.41834 -87.07904 36994 ft 482 kts 120°
2026-04-23 19:00 39.38754 -87.00209 36995 ft 482 kts 120°
2026-04-23 19:00 39.35670 -86.92521 37003 ft 482 kts 120°
2026-04-23 19:01 39.32578 -86.84835 36999 ft 483 kts 120°
2026-04-23 19:01 39.29478 -86.77145 36998 ft 482 kts 120°
2026-04-23 19:02 39.26902 -86.70772 37004 ft 482 kts 120°
2026-04-23 19:02 39.23273 -86.61815 37008 ft 482 kts 120°
2026-04-23 19:03 39.20165 -86.54165 37009 ft 482 kts 120°
2026-04-23 19:03 39.17046 -86.46510 37008 ft 482 kts 120°
2026-04-23 19:04 39.13923 -86.38861 37006 ft 482 kts 120°
2026-04-23 19:04 39.10816 -86.31269 37003 ft 482 kts 120°
2026-04-23 19:05 39.07684 -86.23636 37005 ft 482 kts 120°
2026-04-23 19:05 39.04547 -86.16007 37005 ft 482 kts 120°
2026-04-23 19:06 39.01404 -86.08389 37011 ft 482 kts 120°
2026-04-23 19:06 38.98257 -86.00776 37010 ft 482 kts 120°
2026-04-23 19:07 38.95106 -85.93173 37009 ft 482 kts 120°
2026-04-23 19:07 38.91949 -85.85574 37013 ft 482 kts 120°
2026-04-23 19:08 38.88790 -85.77985 37026 ft 482 kts 120°
2026-04-23 19:08 38.85626 -85.70398 37038 ft 482 kts 120°
2026-04-23 19:09 38.82457 -85.62819 37047 ft 482 kts 120°
2026-04-23 19:09 38.79304 -85.55296 37054 ft 482 kts 120°
2026-04-23 19:10 38.76097 -85.47698 37054 ft 481 kts 121°
2026-04-23 19:10 38.72793 -85.40312 37054 ft 481 kts 121°
2026-04-23 19:11 38.69479 -85.32861 37052 ft 482 kts 121°
2026-04-23 19:11 38.66159 -85.25409 37028 ft 482 kts 121°
2026-04-23 19:12 38.63396 -85.19222 37030 ft 482 kts 121°
2026-04-23 19:12 38.59504 -85.10527 37031 ft 482 kts 121°
2026-04-23 19:13 38.56171 -85.03099 37034 ft 482 kts 121°
2026-04-23 19:13 38.52829 -84.95669 37037 ft 483 kts 121°
2026-04-23 19:14 38.49482 -84.88244 37040 ft 482 kts 121°
2026-04-23 19:14 38.46129 -84.80826 37045 ft 482 kts 121°
2026-04-23 19:15 38.42771 -84.73412 37045 ft 482 kts 121°
2026-04-23 19:15 38.39411 -84.66011 37057 ft 482 kts 121°
2026-04-23 19:16 38.36042 -84.58606 37047 ft 483 kts 121°
2026-04-23 19:16 38.32663 -84.51197 37057 ft 483 kts 121°
2026-04-23 19:17 38.27612 -84.40153 37056 ft 483 kts 121°
2026-04-23 19:17 38.24224 -84.32768 37063 ft 483 kts 121°
2026-04-23 19:18 38.20829 -84.25382 37072 ft 484 kts 120°
2026-04-23 19:18 38.17424 -84.17995 37083 ft 485 kts 120°
2026-04-23 19:19 38.12304 -84.06915 37100 ft 485 kts 120°
2026-04-23 19:20 38.07172 -83.95851 37101 ft 485 kts 120°
2026-04-23 19:20 38.03748 -83.88485 37102 ft 485 kts 120°
2026-04-23 19:21 37.98603 -83.77456 37085 ft 484 kts 120°
2026-04-23 19:22 37.95171 -83.70119 37058 ft 484 kts 120°
2026-04-23 19:22 37.90014 -83.59125 37062 ft 484 kts 120°
2026-04-23 19:23 37.86571 -83.51802 37066 ft 484 kts 120°
2026-04-23 19:24 37.81397 -83.40833 37080 ft 484 kts 120°
2026-04-23 19:24 37.76208 -83.29874 37079 ft 484 kts 120°
2026-04-23 19:25 37.69293 -83.15315 37100 ft 483 kts 120°
2026-04-23 19:26 37.64124 -83.04478 37078 ft 483 kts 120°
2026-04-23 19:27 37.55445 -82.86350 37071 ft 483 kts 120°
2026-04-23 19:28 37.51010 -82.80049 37080 ft 484 kts 134°
2026-04-23 19:28 37.47047 -82.75074 37077 ft 484 kts 135°
2026-04-23 19:29 37.39835 -82.66193 37078 ft 483 kts 135°
2026-04-23 19:30 37.32610 -82.57345 37075 ft 484 kts 135°
2026-04-23 19:31 37.25374 -82.48505 37063 ft 484 kts 135°
2026-04-23 19:31 37.20548 -82.42624 37051 ft 483 kts 135°
2026-04-23 19:32 37.15719 -82.36749 37068 ft 483 kts 135°
2026-04-23 19:32 37.10896 -82.30893 37064 ft 483 kts 135°
2026-04-23 19:33 37.06073 -82.25046 37070 ft 483 kts 135°
2026-04-23 19:33 37.03560 -82.22258 37048 ft 483 kts 146°
2026-04-23 19:33 36.97753 -82.18065 37044 ft 484 kts 150°
2026-04-23 19:34 36.91940 -82.13960 37090 ft 483 kts 151°
2026-04-23 19:35 36.83109 -82.07873 37107 ft 483 kts 152°
2026-04-23 19:35 36.77220 -82.03828 37113 ft 483 kts 152°
2026-04-23 19:36 36.71334 -81.99790 37097 ft 483 kts 151°
2026-04-23 19:36 36.65446 -81.95761 37005 ft 484 kts 151°
2026-04-23 19:36 36.62504 -81.93750 36698 ft 482 kts 151°
2026-04-23 19:37 36.59565 -81.91743 36283 ft 481 kts 151°
2026-04-23 19:37 36.56635 -81.89743 35870 ft 481 kts 151°
2026-04-23 19:37 36.53702 -81.87744 35440 ft 481 kts 151°
2026-04-23 19:37 36.50762 -81.85742 35022 ft 482 kts 151°
2026-04-23 19:38 36.47822 -81.83741 34576 ft 482 kts 151°
2026-04-23 19:38 36.44879 -81.81740 34065 ft 482 kts 151°
2026-04-23 19:38 36.41938 -81.79746 33475 ft 481 kts 152°
2026-04-23 19:38 36.38999 -81.77754 32918 ft 482 kts 152°
2026-04-23 19:39 36.36057 -81.75763 32353 ft 482 kts 152°
2026-04-23 19:39 36.33115 -81.73772 31813 ft 482 kts 152°
2026-04-23 19:39 36.30171 -81.71782 31284 ft 482 kts 152°
2026-04-23 19:39 36.27226 -81.69795 30763 ft 482 kts 152°
2026-04-23 19:40 36.24281 -81.67810 30243 ft 483 kts 153°
2026-04-23 19:40 36.21331 -81.65820 29667 ft 484 kts 153°
2026-04-23 19:40 36.18375 -81.63828 29071 ft 483 kts 153°
2026-04-23 19:40 36.15417 -81.61837 28488 ft 483 kts 153°
2026-04-23 19:41 36.12464 -81.59850 27924 ft 484 kts 152°
2026-04-23 19:41 36.09502 -81.57859 27358 ft 485 kts 152°
2026-04-23 19:41 36.06535 -81.55866 26824 ft 486 kts 153°
2026-04-23 19:41 36.03562 -81.53873 26288 ft 487 kts 153°
2026-04-23 19:42 36.00581 -81.51875 25761 ft 487 kts 152°
2026-04-23 19:42 35.97605 -81.49881 25246 ft 486 kts 153°
2026-04-23 19:42 35.94643 -81.47901 24748 ft 483 kts 153°
2026-04-23 19:42 35.91696 -81.45931 24258 ft 479 kts 153°
2026-04-23 19:43 35.88779 -81.43982 23778 ft 475 kts 153°
2026-04-23 19:43 35.85882 -81.42049 23286 ft 471 kts 153°
2026-04-23 19:43 35.83008 -81.40134 22731 ft 468 kts 153°
2026-04-23 19:43 35.80156 -81.38234 22182 ft 463 kts 153°
2026-04-23 19:44 35.77401 -81.36335 21647 ft 459 kts 151°
2026-04-23 19:44 35.74653 -81.34362 21122 ft 455 kts 150°
2026-04-23 19:44 35.71929 -81.32417 20601 ft 451 kts 150°
2026-04-23 19:44 35.69230 -81.30495 20099 ft 446 kts 150°
2026-04-23 19:45 35.66553 -81.28591 19587 ft 442 kts 150°
2026-04-23 19:45 35.63918 -81.26719 19032 ft 430 kts 150°
2026-04-23 19:45 35.61384 -81.24918 18509 ft 412 kts 150°
2026-04-23 19:45 35.58955 -81.23196 17920 ft 397 kts 150°
2026-04-23 19:46 35.56612 -81.21502 17303 ft 385 kts 148°
2026-04-23 19:46 35.54395 -81.19741 16682 ft 375 kts 148°
2026-04-23 19:46 35.52223 -81.18025 16072 ft 367 kts 148°
2026-04-23 19:46 35.50089 -81.16347 15469 ft 361 kts 148°
2026-04-23 19:47 35.47991 -81.14691 14876 ft 357 kts 148°
2026-04-23 19:47 35.45918 -81.13048 14301 ft 353 kts 148°
2026-04-23 19:47 35.43868 -81.11426 13710 ft 350 kts 148°
2026-04-23 19:47 35.41828 -81.09813 13249 ft 347 kts 148°
2026-04-23 19:48 35.39667 -81.08526 13110 ft 345 kts 167°
2026-04-23 19:48 35.37297 -81.08232 12820 ft 342 kts 179°
2026-04-23 19:48 35.34926 -81.08041 12319 ft 340 kts 177°
2026-04-23 19:48 35.32576 -81.07828 11770 ft 337 kts 178°
2026-04-23 19:49 35.30259 -81.07620 11219 ft 331 kts 178°
2026-04-23 19:49 35.27984 -81.07415 10688 ft 325 kts 177°
2026-04-23 19:49 35.25751 -81.07175 10196 ft 318 kts 177°
2026-04-23 19:49 35.23609 -81.06927 10092 ft 298 kts 177°
2026-04-23 19:50 35.21604 -81.06687 10081 ft 285 kts 177°
2026-04-23 19:50 35.19634 -81.06450 10026 ft 284 kts 177°
2026-04-23 19:50 35.17667 -81.06213 9739 ft 283 kts 177°
2026-04-23 19:50 35.15716 -81.05979 9370 ft 280 kts 177°
2026-04-23 19:51 35.13789 -81.05751 9022 ft 278 kts 177°
2026-04-23 19:51 35.11861 -81.05528 8644 ft 277 kts 177°
2026-04-23 19:51 35.09954 -81.05311 8198 ft 273 kts 177°
2026-04-23 19:51 35.08076 -81.05099 7779 ft 268 kts 177°
2026-04-23 19:52 35.06235 -81.04897 7381 ft 264 kts 177°
2026-04-23 19:52 35.04418 -81.04700 6981 ft 259 kts 177°
2026-04-23 19:52 35.02652 -81.04507 7002 ft 254 kts 177°
2026-04-23 19:52 35.00887 -81.04310 7024 ft 255 kts 177°
2026-04-23 19:53 34.99140 -81.04120 7008 ft 256 kts 177°
2026-04-23 19:53 34.97369 -81.03914 7016 ft 256 kts 177°
2026-04-23 19:53 34.95597 -81.03705 7012 ft 255 kts 177°
2026-04-23 19:53 34.93828 -81.03495 7018 ft 256 kts 177°
2026-04-23 19:54 34.92057 -81.03295 7029 ft 256 kts 177°
2026-04-23 19:54 34.90289 -81.03104 6994 ft 255 kts 177°
2026-04-23 19:54 34.88522 -81.02918 7010 ft 255 kts 177°
2026-04-23 19:54 34.86754 -81.02731 6998 ft 255 kts 177°
2026-04-23 19:55 34.84992 -81.02537 7002 ft 255 kts 177°
2026-04-23 19:55 34.83226 -81.02345 6998 ft 255 kts 177°
2026-04-23 19:55 34.81500 -81.01870 6950 ft 258 kts 153°
2026-04-23 19:55 34.80261 -81.00333 6952 ft 261 kts 117°
2026-04-23 19:56 34.79958 -80.98164 6961 ft 265 kts 81°
2026-04-23 19:56 34.80588 -80.96066 7007 ft 267 kts 63°
2026-04-23 19:56 34.81445 -80.94046 6981 ft 269 kts 62°
2026-04-23 19:56 34.82513 -80.92214 6964 ft 265 kts 40°
2026-04-23 19:57 34.84085 -80.91090 6884 ft 263 kts 15°
2026-04-23 19:57 34.85873 -80.90884 6695 ft 257 kts 349°
2026-04-23 19:57 34.87595 -80.91425 6500 ft 256 kts 341°
2026-04-23 19:57 34.89321 -80.91946 6313 ft 254 kts 346°
2026-04-23 19:58 34.91052 -80.92322 6115 ft 251 kts 349°
2026-04-23 19:58 34.92772 -80.92601 5876 ft 249 kts 351°
2026-04-23 19:58 34.94505 -80.92822 5564 ft 250 kts 353°
2026-04-23 19:58 34.96237 -80.93006 5256 ft 250 kts 353°
2026-04-23 19:59 34.97982 -80.93172 4950 ft 253 kts 353°
2026-04-23 19:59 34.99738 -80.93330 4636 ft 254 kts 354°
2026-04-23 19:59 35.01508 -80.93486 4293 ft 256 kts 354°
2026-04-23 19:59 35.03259 -80.93638 3956 ft 248 kts 354°
2026-04-23 20:00 35.04955 -80.93785 3650 ft 241 kts 354°
2026-04-23 20:00 35.06589 -80.93922 3359 ft 237 kts 353°
2026-04-23 20:00 35.08219 -80.94066 3032 ft 232 kts 353°
2026-04-23 20:00 35.09813 -80.94205 2718 ft 228 kts 353°
2026-04-23 20:01 35.11382 -80.94340 2417 ft 225 kts 353°
2026-04-23 20:01 35.12905 -80.94470 2169 ft 210 kts 353°
2026-04-23 20:01 35.14296 -80.94590 1928 ft 192 kts 353°
2026-04-23 20:01 35.15554 -80.94697 1682 ft 176 kts 354°
2026-04-23 20:02 35.16785 -80.94799 1423 ft 174 kts 353°
2026-04-23 20:02 35.17937 -80.94909 1197 ft 159 kts 354°
2026-04-23 20:02 35.19029 -80.94996 957 ft 155 kts 353°
2026-04-23 20:02 35.20085 -80.95089 767 ft 156 kts 355°
2026-04-23 20:03 35.21078 -80.95177 739 ft 118 kts 356°
2026-04-23 20:03 35.21648 -80.95225 742 ft 52 kts 357°
2026-04-23 20:03 35.21847 -80.95229 744 ft 12 kts 11°
2026-04-23 20:03 35.21947 -80.95188 742 ft 18 kts 21°
2026-04-23 20:04 35.22035 -80.95138 739 ft 8 kts 31°
2026-04-23 20:04 35.22039 -80.95135 739 ft 0 kts 32°
2026-04-23 20:04 35.22047 -80.95128 738 ft 5 kts 36°
2026-04-23 20:05 35.22067 -80.95087 737 ft 8 kts 94°
2026-04-23 20:05 35.21981 -80.95052 736 ft 13 kts 178°
2026-04-23 20:05 35.21895 -80.95044 736 ft 9 kts 167°
2026-04-23 20:05 35.21866 -80.94976 735 ft 11 kts 80°
2026-04-23 20:06 35.21877 -80.94868 735 ft 14 kts 86°
2026-04-23 20:06 35.21899 -80.94742 735 ft 16 kts 66°
2026-04-23 20:06 35.21927 -80.94668 735 ft 8 kts 80°
2026-04-23 20:06 35.21922 -80.94615 735 ft 3 kts 101°
2026-04-23 20:07 35.21919 -80.94599 735 ft 0 kts 101°
2026-04-23 20:07 35.21918 -80.94588 735 ft 2 kts 102°
2026-04-23 20:07 35.21916 -80.94578 735 ft 1 kts 102°